Flag for U.S.A. Weather past 2 weeks in Mason, Ohio, U.S.A.

Now
41 °F

Clear.


Feels Like: 41 °F
Forecast: 45 / 69 °F
Wind: No wind

Location: Butler County Regional Airport

Current Time: Oct 25, 2014 at 2:20:47 AM

Latest Report: Oct 25, 2014 at 1:53 AM


Visibility: 8 mi

Pressure: 30.04 "Hg

Humidity: 93%

Dew point: 39 °F

Location of MasonLocation

Historic Weather in Mason — Graph

°F

Mason temperature yesterday

Maximum temperature yesterday: 67 °F (at 3:53 PM)
Minimum temperature yesterday: 35 °F (at 8:53 AM)
Average temperature yesterday: 48 °F

Past Weeks' High & Low Weather Summary

 TemperatureHumidityPressure
High78 °F (Oct 13, 5:53 PM)100% (Oct 12, 4:53 AM)30.33 "Hg (Oct 12, 4:53 AM)
Low33 °F (Oct 23, 7:53 AM)33% (Oct 24, 3:53 PM)29.60 "Hg (Oct 14, 12:01 PM)
Average54 °F81%30.00 "Hg
* Reported Oct 10 12:53 AM — Oct 25 12:53 AM, Mason, Weather by CustomWeather, © 2014

Note: Actual official high and low records may vary slightly from our data, if they occured in-between our weather recording intervals... More about our weather records

Advertising

Mason weather history for previous 24 hours

 ConditionsComfort  
Time TempWeatherWind HumidityBarometerVisibility
12:53 AM
Oct 25
42 °FClear.No wind92%30.05 "Hg7 mi
11:53 PM
Oct 24
44 °FPassing clouds.No wind93%30.06 "Hg8 mi
10:53 PM43 °FClear.No wind93%30.06 "Hg9 mi
9:53 PM43 °FClear.No wind93%30.06 "Hg9 mi
8:53 PM46 °FCool.No wind86%30.06 "Hg10 mi
5:53 PM65 °FSunny.3 mph42%30.04 "Hg8 mi
4:53 PM66 °FMild.N/AN/A30.03 "HgN/A
3:53 PM67 °FSunny.6 mph33%30.04 "Hg10 mi
2:53 PM66 °FSunny.3 mph40%30.06 "Hg10 mi
1:53 PM63 °FSunny.5 mph47%30.10 "Hg10 mi
12:53 PM63 °FSunny.3 mph47%30.12 "Hg10 mi
11:53 AM60 °FSunny.5 mph56%30.14 "Hg10 mi
10:53 AM53 °FSunny.No wind77%30.15 "Hg8 mi
9:53 AM44 °FFog.No wind96%30.16 "Hg6 mi
9:03 AM36 °FFog.No wind100%30.15 "Hg0 mi
8:53 AM35 °FChilly.No wind100%30.16 "HgN/A
7:53 AM36 °FChilly.N/A97%30.15 "HgN/A
6:53 AM37 °FFog.No wind100%30.14 "Hg6 mi
5:53 AM39 °FClear.No wind96%30.14 "Hg7 mi
4:53 AM38 °FFog.No wind97%30.13 "Hg4 mi
3:53 AM39 °FFog.No wind96%30.13 "Hg6 mi
2:53 AM40 °FClear.No wind97%30.13 "Hg7 mi
Weather by CustomWeather, © 2014

See weather overviewHow to use our weather pages